TimeHAST,TemperatureF,Dew PointF,Humidity,Sea Level PressureIn,VisibilityMPH,Wind Direction,Wind SpeedMPH,Gust SpeedMPH,PrecipitationIn,Events,Conditions,WindDirDegrees,DateUTC
12:16 AM,32.0,-16.6,12,29.42,10.0,West,5.8,-,N/A,,Overcast,260,2013-01-10 10:16:00
12:36 AM,32.0,-16.6,12,29.42,10.0,West,5.8,-,N/A,,Overcast,280,2013-01-10 10:36:00
12:56 AM,32.0,-16.6,12,29.42,2.0,Calm,Calm,-,N/A,,Overcast,0,2013-01-10 10:56:00
1:16 AM,32.0,-16.6,12,29.40,4.0,Calm,Calm,-,N/A,,Overcast,0,2013-01-10 11:16:00
1:36 AM,32.0,-16.6,12,29.40,10.0,SW,5.8,-,N/A,,Overcast,230,2013-01-10 11:36:00
1:56 AM,32.0,-16.6,12,29.40,7.0,West,6.9,-,N/A,,Overcast,260,2013-01-10 11:56:00
2:16 AM,32.0,-16.6,12,29.40,3.0,West,12.7,-,N/A,,Overcast,260,2013-01-10 12:16:00
2:36 AM,32.0,-16.6,12,29.40,2.0,West,10.4,-,N/A,,Overcast,280,2013-01-10 12:36:00
2:56 AM,32.0,-16.6,12,29.39,3.0,WNW,9.2,-,N/A,,Overcast,300,2013-01-10 12:56:00
3:16 AM,30.2,-16.6,13,29.40,8.0,WNW,9.2,-,N/A,,Mostly Cloudy,290,2013-01-10 13:16:00
3:36 AM,30.2,-16.6,13,29.40,10.0,West,10.4,-,N/A,,Overcast,280,2013-01-10 13:36:00
3:56 AM,32.0,-16.6,12,29.41,3.0,WNW,11.5,-,N/A,,Overcast,290,2013-01-10 13:56:00
4:16 AM,30.2,-16.6,13,29.41,10.0,WNW,10.4,-,N/A,,Mostly Cloudy,300,2013-01-10 14:16:00
4:36 AM,30.2,-16.6,13,29.42,10.0,West,10.4,-,N/A,,Mostly Cloudy,280,2013-01-10 14:36:00
4:56 AM,30.2,-16.6,13,29.42,10.0,West,10.4,-,N/A,,Partly Cloudy,270,2013-01-10 14:56:00
5:16 AM,30.2,-16.6,13,29.42,10.0,West,13.8,-,N/A,,Partly Cloudy,260,2013-01-10 15:16:00
5:36 AM,30.2,-16.6,13,29.43,10.0,West,13.8,-,N/A,,Clear,260,2013-01-10 15:36:00
5:56 AM,30.2,-16.6,13,29.44,10.0,West,12.7,-,N/A,,Clear,260,2013-01-10 15:56:00
6:16 AM,30.2,-16.6,13,29.45,10.0,WSW,12.7,-,N/A,,Partly Cloudy,250,2013-01-10 16:16:00
6:36 AM,28.4,-18.4,12,29.46,10.0,WSW,12.7,-,N/A,,Clear,250,2013-01-10 16:36:00
6:56 AM,28.4,-18.4,12,29.46,10.0,West,12.7,-,N/A,,Clear,260,2013-01-10 16:56:00
7:16 AM,28.4,-18.4,12,29.48,10.0,WSW,10.4,-,N/A,,Clear,240,2013-01-10 17:16:00
7:36 AM,28.4,-18.4,12,29.48,10.0,West,10.4,-,N/A,,Partly Cloudy,260,2013-01-10 17:36:00
7:56 AM,28.4,-18.4,12,29.49,10.0,WSW,11.5,-,N/A,,Partly Cloudy,250,2013-01-10 17:56:00
8:16 AM,28.4,-18.4,12,29.50,10.0,West,9.2,-,N/A,,Clear,260,2013-01-10 18:16:00
8:36 AM,28.4,-18.4,12,29.51,10.0,WSW,9.2,-,N/A,,Clear,250,2013-01-10 18:36:00
8:56 AM,28.4,-18.4,12,29.52,10.0,WSW,9.2,-,N/A,,Clear,250,2013-01-10 18:56:00
9:16 AM,28.4,-18.4,12,29.53,10.0,SW,11.5,-,N/A,,Clear,230,2013-01-10 19:16:00
9:36 AM,30.2,-16.6,13,29.54,10.0,WSW,10.4,-,N/A,,Clear,240,2013-01-10 19:36:00
9:56 AM,28.4,-18.4,12,29.54,10.0,WSW,9.2,-,N/A,,Clear,250,2013-01-10 19:56:00
10:16 AM,28.4,-18.4,12,29.55,10.0,WSW,6.9,-,N/A,,Clear,250,2013-01-10 20:16:00
10:36 AM,30.2,-18.4,11,29.56,10.0,WSW,8.1,-,N/A,,Clear,240,2013-01-10 20:36:00
10:56 AM,30.2,-16.6,13,29.56,10.0,WSW,8.1,-,N/A,,Clear,250,2013-01-10 20:56:00
11:16 AM,30.2,-16.6,13,29.56,10.0,WSW,9.2,-,N/A,,Clear,250,2013-01-10 21:16:00
11:36 AM,32.0,-16.6,12,29.56,10.0,WSW,8.1,-,N/A,,Clear,250,2013-01-10 21:36:00
11:56 AM,33.8,-14.8,12,29.57,10.0,WSW,8.1,-,N/A,,Clear,240,2013-01-10 21:56:00
12:16 PM,35.6,-14.8,11,29.57,10.0,SW,9.2,-,N/A,,Clear,230,2013-01-10 22:16:00
12:36 PM,35.6,-14.8,11,29.59,10.0,SW,9.2,-,N/A,,Clear,230,2013-01-10 22:36:00
12:56 PM,35.6,-13.0,12,29.59,10.0,SW,8.1,-,N/A,,Clear,230,2013-01-10 22:56:00
1:16 PM,33.8,-14.8,12,29.60,10.0,SW,10.4,-,N/A,,Clear,230,2013-01-10 23:16:00
1:36 PM,35.6,-14.8,11,29.61,10.0,SW,10.4,-,N/A,,Clear,220,2013-01-10 23:36:00
1:56 PM,37.4,-13.0,11,29.62,10.0,SW,8.1,-,N/A,,Clear,220,2013-01-10 23:56:00
2:16 PM,37.4,-13.0,11,29.62,10.0,SW,9.2,-,N/A,,Clear,230,2013-01-11 00:16:00
2:36 PM,37.4,-11.2,12,29.62,10.0,SW,8.1,-,N/A,,Clear,230,2013-01-11 00:36:00
2:56 PM,35.6,-13.0,12,29.63,10.0,SW,8.1,-,N/A,,Partly Cloudy,230,2013-01-11 00:56:00
3:16 PM,35.6,-14.8,11,29.63,10.0,SW,9.2,-,N/A,,Mostly Cloudy,220,2013-01-11 01:16:00
3:36 PM,35.6,-9999,N/A,29.65,5.0,SW,12.7,-,N/A,,Mostly Cloudy,230,2013-01-11 01:36:00
3:56 PM,35.6,-13.0,12,29.64,10.0,SSW,6.9,-,N/A,,Mostly Cloudy,200,2013-01-11 01:56:00
4:16 PM,35.6,-14.8,11,29.65,7.0,SW,9.2,21.9,N/A,,Mostly Cloudy,220,2013-01-11 02:16:00
4:36 PM,33.8,-14.8,12,29.65,10.0,SW,5.8,-,N/A,,Mostly Cloudy,230,2013-01-11 02:36:00
4:56 PM,33.8,-14.8,12,29.65,10.0,SSW,10.4,-,N/A,,Scattered Clouds,200,2013-01-11 02:56:00
5:16 PM,33.8,-14.8,12,29.65,10.0,SW,9.2,-,N/A,,Clear,220,2013-01-11 03:16:00
5:36 PM,33.8,-14.8,12,29.65,10.0,SSW,10.4,-,N/A,,Partly Cloudy,210,2013-01-11 03:36:00
5:56 PM,33.8,-14.8,12,29.65,1.5,WSW,8.1,-,N/A,,Overcast,250,2013-01-11 03:56:00
6:16 PM,32.0,-14.8,13,29.67,4.0,SSW,11.5,-,N/A,,Overcast,210,2013-01-11 04:16:00
6:36 PM,32.0,-16.6,12,29.65,10.0,Calm,Calm,-,N/A,,Scattered Clouds,0,2013-01-11 04:36:00
6:56 PM,28.4,-18.4,12,29.65,10.0,North,3.5,-,N/A,,Clear,350,2013-01-11 04:56:00
7:16 PM,28.4,-18.4,12,29.66,10.0,North,3.5,-,N/A,,Scattered Clouds,350,2013-01-11 05:16:00
7:36 PM,28.4,-18.4,12,29.68,8.0,South,9.2,-,N/A,,Overcast,180,2013-01-11 05:36:00
7:56 PM,32.0,-16.6,12,29.68,4.0,South,10.4,-,N/A,,Mostly Cloudy,190,2013-01-11 05:56:00
8:16 PM,33.8,-14.8,12,29.68,6.0,South,18.4,23.0,N/A,,Overcast,180,2013-01-11 06:16:00
8:36 PM,32.0,-14.8,13,29.68,10.0,SSW,6.9,-,N/A,,Mostly Cloudy,200,2013-01-11 06:36:00
8:56 PM,32.0,-16.6,12,29.69,10.0,South,9.2,-,N/A,,Mostly Cloudy,190,2013-01-11 06:56:00
9:16 PM,30.2,-16.6,13,29.69,10.0,SSW,4.6,-,N/A,,Scattered Clouds,200,2013-01-11 07:16:00
9:36 PM,28.4,-18.4,12,29.69,10.0,NNW,4.6,-,N/A,,Partly Cloudy,340,2013-01-11 07:36:00
9:56 PM,28.4,-18.4,12,29.69,10.0,SSW,8.1,-,N/A,,Partly Cloudy,200,2013-01-11 07:56:00
10:16 PM,30.2,-16.6,13,29.70,10.0,SSW,9.2,-,N/A,,Clear,200,2013-01-11 08:16:00
10:36 PM,30.2,-16.6,13,29.70,10.0,South,6.9,-,N/A,,Mostly Cloudy,190,2013-01-11 08:36:00
10:56 PM,30.2,-16.6,13,29.69,10.0,SSW,3.5,-,N/A,,Mostly Cloudy,200,2013-01-11 08:56:00
11:16 PM,32.0,-16.6,12,29.69,2.0,SSW,10.4,24.2,N/A,,Overcast,200,2013-01-11 09:16:00
11:36 PM,30.2,-16.6,13,29.69,10.0,SW,8.1,-,N/A,,Partly Cloudy,230,2013-01-11 09:36:00
11:56 PM,28.4,-18.4,12,29.70,10.0,Calm,Calm,-,N/A,,Partly Cloudy,0,2013-01-11 09:56:00